When you browse on this site, cookies collect data to enhance your experience and personalize the content and advertising you see.
Visit our Privacy Policy to learn more. By continuing to use the site, you agree to this use of cookies and data.
  • In Latvia
  • List of Countries
  • For 7 days
  • Water Temperature
  • Satellite Maps
  • Weather Map
  • Weather Widgets
  • user-avatar
    Login

    Hourly Weather Volnyy

    Today, 24 March, Sunday

    Time Temperature Precipitation Wind Pressure Humidity
    00:00 -1°C° 0 mm 2 mps 742 mmHg 84%
    01:00 -2°C° 0 mm 2 mps 742 mmHg 85%
    02:00 -2°C° 0 mm 2 mps 742 mmHg 85%
    03:00 -2°C° 0 mm 2 mps 741 mmHg 86%
    04:00 -2°C° 0 mm 2 mps 742 mmHg 85%
    05:00 -4°C° 0 mm 3 mps 742 mmHg 83%
    06:00 -4°C° 0 mm 3 mps 742 mmHg 82%
    07:00 -1°C° 0 mm 3 mps 742 mmHg 78%
    08:00 -1°C° 0 mm 4 mps 742 mmHg 74%
    09:00 +1°C° 0 mm 4 mps 742 mmHg 70%
    10:00 +3°C° 0.1 mm 4 mps 742 mmHg 72%
    11:00 +3°C° 0.1 mm 4 mps 742 mmHg 73%
    12:00 +4°C° 0.1 mm 4 mps 742 mmHg 74%
    13:00 +3°C° 0.1 mm 5 mps 742 mmHg 72%
    14:00 +5°C° 0.1 mm 5 mps 742 mmHg 69%
    15:00 +5°C° 0.1 mm 5 mps 742 mmHg 67%
    16:00 +3°C° 0.1 mm 5 mps 742 mmHg 70%
    17:00 +4°C° 0.1 mm 4 mps 742 mmHg 74%
    18:00 +3°C° 0.1 mm 4 mps 743 mmHg 77%
    19:00 +2°C° 0 mm 3 mps 743 mmHg 81%
    20:00 +1°C° 0 mm 3 mps 743 mmHg 84%
    21:00 +1°C° 0 mm 2 mps 744 mmHg 88%
    22:00 +1°C° 0 mm 2 mps 744 mmHg 88%
    23:00 -1°C° 0 mm 2 mps 744 mmHg 88%

    Tomorrow, 25 March, Monday

    Time Temperature Precipitation Wind Pressure Humidity
    00:00 +1°C° 0 mm 1 mps 744 mmHg 89%
    01:00 +1°C° 0 mm 1 mps 744 mmHg 89%
    02:00 0°C° 0 mm 1 mps 744 mmHg 89%
    03:00 0°C° 0 mm 1 mps 743 mmHg 89%
    04:00 0°C° 0 mm 1 mps 743 mmHg 88%
    05:00 -2°C° 0 mm 2 mps 743 mmHg 87%
    06:00 -2°C° 0 mm 2 mps 743 mmHg 85%
    07:00 +2°C° 0 mm 1 mps 743 mmHg 78%
    08:00 +3°C° 0 mm 1 mps 743 mmHg 72%
    09:00 +5°C° 0 mm 1 mps 743 mmHg 65%
    10:00 +6°C° 0 mm 1 mps 742 mmHg 61%
    11:00 +8°C° 0 mm 1 mps 742 mmHg 58%
    12:00 +9°C° 0 mm 1 mps 742 mmHg 54%
    13:00 +9°C° 0 mm 1 mps 741 mmHg 54%
    14:00 +10°C° 0 mm 1 mps 741 mmHg 53%
    15:00 +10°C° 0 mm 1 mps 741 mmHg 52%
    16:00 +10°C° 0 mm 1 mps 740 mmHg 57%
    17:00 +9°C° 0 mm 1 mps 740 mmHg 62%
    18:00 +8°C° 0 mm 1 mps 740 mmHg 66%
    19:00 +7°C° 0 mm 1 mps 741 mmHg 69%
    20:00 +6°C° 0 mm 1 mps 741 mmHg 72%
    21:00 +4°C° 0 mm 2 mps 741 mmHg 75%
    22:00 +4°C° 0 mm 1 mps 741 mmHg 76%
    23:00 +4°C° 0 mm 1 mps 741 mmHg 78%

    Day after tomorrow, 26 March, Tuesday

    Time Temperature Precipitation Wind Pressure Humidity
    00:00 +3°C° 0 mm 1 mps 741 mmHg 80%
    01:00 +3°C° 0 mm 1 mps 741 mmHg 80%
    02:00 +3°C° 0 mm 1 mps 741 mmHg 81%
    03:00 +3°C° 0 mm 1 mps 741 mmHg 82%
    04:00 +2°C° 0 mm 1 mps 741 mmHg 82%
    05:00 +2°C° 0 mm 1 mps 741 mmHg 82%
    06:00 +2°C° 0 mm 1 mps 741 mmHg 83%
    07:00 +4°C° 0 mm 1 mps 741 mmHg 77%
    08:00 +6°C° 0 mm 1 mps 741 mmHg 71%
    09:00 +8°C° 0 mm 1 mps 741 mmHg 65%
    10:00 +10°C° 0 mm 1 mps 741 mmHg 60%
    11:00 +11°C° 0 mm 1 mps 741 mmHg 55%
    12:00 +13°C° 0 mm 1 mps 740 mmHg 51%
    13:00 +14°C° 0 mm 1 mps 740 mmHg 48%
    14:00 +14°C° 0 mm 1 mps 740 mmHg 46%
    15:00 +15°C° 0 mm 1 mps 739 mmHg 44%
    16:00 +14°C° 0 mm 1 mps 739 mmHg 48%
    17:00 +13°C° 0 mm 1 mps 739 mmHg 53%
    18:00 +12°C° 0 mm 1 mps 739 mmHg 58%
    19:00 +11°C° 0 mm 1 mps 739 mmHg 61%
    20:00 +9°C° 0 mm 1 mps 740 mmHg 65%
    21:00 +8°C° 0 mm 1 mps 740 mmHg 68%
    22:00 +7°C° 0 mm 1 mps 740 mmHg 70%
    23:00 +7°C° 0 mm 1 mps 740 mmHg 72%

    27 March, Wednesday

    Time Temperature Precipitation Wind Pressure Humidity
    00:00 +5°C° 0 mm 2 mps 740 mmHg 75%
    01:00 +5°C° 0 mm 2 mps 740 mmHg 76%
    02:00 +5°C° 0 mm 2 mps 740 mmHg 77%
    03:00 +4°C° 0 mm 2 mps 740 mmHg 79%
    04:00 +4°C° 0 mm 2 mps 740 mmHg 80%
    05:00 +4°C° 0 mm 2 mps 740 mmHg 82%
    06:00 +4°C° 0 mm 2 mps 740 mmHg 83%
    07:00 +5°C° 0 mm 2 mps 741 mmHg 78%
    08:00 +7°C° 0 mm 2 mps 741 mmHg 73%
    09:00 +8°C° 0 mm 2 mps 741 mmHg 68%
    10:00 +10°C° 0 mm 3 mps 742 mmHg 65%
    11:00 +11°C° 0 mm 4 mps 742 mmHg 61%
    12:00 +12°C° 0 mm 4 mps 742 mmHg 58%
    13:00 +10°C° 0 mm 5 mps 742 mmHg 62%
    14:00 +10°C° 0 mm 5 mps 742 mmHg 65%
    15:00 +9°C° 0 mm 6 mps 742 mmHg 69%
    16:00 +9°C° 0 mm 5 mps 743 mmHg 66%
    17:00 +8°C° 0 mm 5 mps 743 mmHg 64%
    18:00 +7°C° 0 mm 4 mps 744 mmHg 62%
    19:00 +6°C° 0 mm 4 mps 745 mmHg 61%
    20:00 +5°C° 0 mm 3 mps 745 mmHg 61%
    21:00 +3°C° 0 mm 3 mps 746 mmHg 60%
    22:00 +3°C° 0 mm 2 mps 746 mmHg 63%
    23:00 +3°C° 0 mm 2 mps 747 mmHg 66%

    28 March, Thursday

    Time Temperature Precipitation Wind Pressure Humidity
    00:00 +3°C° 0 mm 1 mps 747 mmHg 70%
    01:00 +2°C° 0 mm 1 mps 747 mmHg 69%
    02:00 +2°C° 0 mm 1 mps 748 mmHg 68%
    03:00 0°C° 0 mm 0 mps 748 mmHg 67%
    04:00 0°C° 0 mm 0 mps 748 mmHg 67%
    05:00 0°C° 0 mm 0 mps 748 mmHg 67%
    06:00 -1°C° 0 mm 0 mps 748 mmHg 66%
    07:00 +2°C° 0 mm 1 mps 749 mmHg 58%
    08:00 +3°C° 0 mm 1 mps 749 mmHg 50%
    09:00 +5°C° 0 mm 1 mps 749 mmHg 41%
    10:00 +5°C° 0 mm 2 mps 749 mmHg 39%
    11:00 +6°C° 0 mm 2 mps 749 mmHg 36%
    12:00 +7°C° 0 mm 2 mps 749 mmHg 33%
    13:00 +7°C° 0 mm 2 mps 749 mmHg 34%
    14:00 +7°C° 0 mm 3 mps 748 mmHg 35%
    15:00 +8°C° 0 mm 3 mps 748 mmHg 36%
    16:00 +7°C° 0 mm 3 mps 748 mmHg 42%
    17:00 +6°C° 0 mm 2 mps 748 mmHg 47%
    18:00 +6°C° 0 mm 2 mps 748 mmHg 52%
    19:00 +4°C° 0 mm 2 mps 748 mmHg 56%
    20:00 +3°C° 0 mm 2 mps 749 mmHg 59%
    21:00 +3°C° 0 mm 1 mps 749 mmHg 62%
    22:00 +2°C° 0 mm 1 mps 749 mmHg 63%
    23:00 +2°C° 0 mm 1 mps 749 mmHg 64%

    29 March, Friday

    Time Temperature Precipitation Wind Pressure Humidity
    00:00 +1°C° 0 mm 1 mps 749 mmHg 66%
    01:00 +1°C° 0 mm 1 mps 749 mmHg 66%
    02:00 +1°C° 0 mm 1 mps 749 mmHg 67%
    03:00 +1°C° 0 mm 1 mps 749 mmHg 67%
    04:00 +1°C° 0 mm 1 mps 749 mmHg 67%
    05:00 0°C° 0 mm 1 mps 749 mmHg 67%
    06:00 0°C° 0 mm 1 mps 748 mmHg 67%
    07:00 +2°C° 0 mm 1 mps 748 mmHg 61%
    08:00 +4°C° 0 mm 1 mps 749 mmHg 54%
    09:00 +6°C° 0 mm 1 mps 749 mmHg 48%
    10:00 +6°C° 0 mm 2 mps 748 mmHg 45%
    11:00 +7°C° 0 mm 2 mps 748 mmHg 43%
    12:00 +9°C° 0 mm 2 mps 748 mmHg 40%
    13:00 +9°C° 0 mm 2 mps 747 mmHg 39%
    14:00 +9°C° 0 mm 3 mps 747 mmHg 39%
    15:00 +10°C° 0 mm 3 mps 746 mmHg 39%
    16:00 +9°C° 0 mm 2 mps 746 mmHg 44%
    17:00 +8°C° 0 mm 2 mps 746 mmHg 48%
    18:00 +8°C° 0 mm 1 mps 746 mmHg 53%
    19:00 +7°C° 0 mm 1 mps 746 mmHg 55%
    20:00 +4°C° 0 mm 0 mps 747 mmHg 58%
    21:00 +3°C° 0 mm 0 mps 747 mmHg 60%
    22:00 +3°C° 0 mm 0 mps 747 mmHg 62%
    23:00 +3°C° 0 mm 1 mps 747 mmHg 63%
    Show more